10P/Tempel 2 (2021)

Japanese version
Home page
Updated on May 19, 2019

---------------------------------------------------------------------

* Profile

* Orbital Elements

Epoch 2021 Mar. 7.0 TT = JDT 2459280.5
T 2021 Mar. 24.27835 TT                                 MPCW
q   1.4124792            (2000.0)            P               Q
n   0.18398430     Peri.  195.50699     +0.68082861     +0.70882520
a   3.0616030      Node   117.80970     -0.64786939     +0.70029937
e   0.5386472      Incl.   12.03967     -0.34166892     +0.08454369
P   5.36
From 3678 observations 1972 Feb. 10-2019 Mar. 7, mean residual 0".5.
     Nongravitational parameters A1 = +0.03, A2 = +0.0007.

* Finding Charts

* Magnitudes Graph

        H = 13.6  G = 0.15              [    ,-155]  (             - 2020 Oct. 20)
        m1 =  4.6 + 5 log d + 35 log r  [-155,   0]  (2020 Oct. 20 - 2021 Mar. 24)
        m1 =  7.2 + 5 log d + 18 log r  [   0, 405]  (2021 Mar. 24 - 2022 May   3)
        H = 13.6  G = 0.15              [ 405,    ]  (2022 May   3 -             )

---------------------------------------------------------------------

The orbital elements are published on M.P.E.C. 2019-J142.
The charts are made with StellaNavigator Ver.10 (AstroArts).
The magnitudes graphs are made with Comet for Windows.

---------------------------------------------------------------------

Copyright(C) Seiichi Yoshida (comet@aerith.net). All rights reserved.